This demonstration page uses our WeatherBlox Daily Observations layout. Learn more.

Left ArrowRight Arrow

Hourly Observations for November 30, 2022

Temp ( °F °C ) Dew Point ( °F °C ) Humidity (%) Winds ( mph kmh ) Pressure ( in mb ) Visibility ( mi km ) Precip ( " mm )
12:15 am 00:15 Clear 12 -11.2 5 -14.8 75 75 WNW 7 11 30.36 1028 10 16 0.00 0.00
12:35 am 00:35 Clear 13 -10.7 6 -14.4 74 74 WNW 8 13 30.36 1028 10 16 0.00 0.00
12:55 am 00:55 Clear 12 -10.9 6 -14.5 75 75 WNW 7 11 30.36 1028 10 16 0.00 0.00
1:15 am 01:15 Clear 11 -11.4 6 -14.7 76 76 WNW 8 13 30.36 1028 10 16 0.00 0.00
1:35 am 01:35 Clear 11 -11.8 5 -15 77 77 WNW 8 13 30.37 1029 10 16 0.00 0.00
1:55 am 01:55 Clear 12 -11.3 6 -14.6 76 76 WNW 7 11 30.38 1029 10 16 0.00 0.00
2:15 am 02:15 Clear 11 -11.8 5 -15 77 77 W 6 9 30.39 1029 10 16 0.00 0.00
2:35 am 02:35 Clear 11 -11.4 5 -14.8 76 76 WNW 7 11 30.39 1029 10 16 0.00 0.00
2:55 am 02:55 Clear 11 -11.6 5 -15 76 76 W 6 9 30.41 1030 10 16 0.00 0.00
3:15 am 03:15 Clear 11 -11.8 5 -15.1 76 76 W 6 9 30.42 1030 10 16 0.00 0.00
3:35 am 03:35 Clear 11 -11.8 5 -15 77 77 W 6 9 30.42 1030 10 16 0.00 0.00
3:55 am 03:55 Clear 11 -11.8 5 -15.1 76 76 W 7 11 30.44 1031 10 16 0.00 0.00
4:15 am 04:15 Clear 11 -11.7 5 -15.1 76 76 W 6 9 30.44 1031 10 16 0.00 0.00
4:35 am 04:35 Clear 10 -12.2 4 -15.5 76 76 W 6 9 30.45 1031 10 16 0.00 0.00
4:55 am 04:55 Clear 10 -12.2 4 -15.5 76 76 W 8 13 30.47 1032 10 16 0.00 0.00
5:15 am 05:15 Clear 10 -12 4 -15.5 75 75 WNW 8 13 30.47 1032 10 16 0.00 0.00
5:35 am 05:35 Clear 9 -12.6 3 -16 76 76 WNW 8 13 30.48 1032 10 16 0.00 0.00
5:55 am 05:55 Clear 9 -12.8 3 -16.2 76 76 WNW 7 11 30.49 1032 10 16 0.00 0.00
6:15 am 06:15 Clear 8 -13.1 2 -16.5 75 75 WNW 7 11 30.50 1033 10 16 0.00 0.00
6:35 am 06:35 Clear 9 -13 3 -16.2 77 77 W 7 11 30.51 1033 10 16 0.00 0.00
6:55 am 06:55 Clear 9 -13 2 -16.5 75 75 W 5 7 30.52 1033 10 16 0.00 0.00
7:15 am 07:15 Clear 9 -13 2 -16.5 75 75 WNW 6 9 30.52 1033 10 16 0.00 0.00
7:35 am 07:35 Clear 9 -12.9 2 -16.5 74 74 WNW 6 9 30.53 1034 10 16 0.00 0.00
7:55 am 07:55 Sunny 9 -13 2 -16.6 74 74 WNW 6 9 30.54 1034 10 16 0.00 0.00
8:15 am 08:15 Sunny 10 -12.5 3 -16.3 73 73 WNW 7 11 30.53 1034 10 16 0.00 0.00
8:35 am 08:35 Sunny 11 -11.5 4 -15.6 71 71 NW 6 9 30.53 1034 10 16 0.00 0.00
8:55 am 08:55 Sunny 12 -11 5 -15.2 71 71 W 5 7 30.55 1034 10 16 0.00 0.00
9:15 am 09:15 Sunny 14 -9.9 7 -14 72 72 WSW 6 9 30.55 1034 10 16 0.00 0.00
9:35 am 09:35 Sunny 17 -8.5 7 -13.9 65 65 W 7 11 30.54 1034 10 16 0.00 0.00
9:55 am 09:55 Sunny 17 -8.1 7 -13.7 64 64 W 7 11 30.54 1034 10 16 0.00 0.00
10:15 am 10:15 Sunny 19 -7.5 9 -12.7 66 66 WSW 7 11 30.54 1034 10 16 0.00 0.00
10:35 am 10:35 Sunny 20 -6.9 9 -12.7 63 63 WSW 7 11 30.53 1034 10 16 0.00 0.00
10:55 am 10:55 Sunny 20 -6.7 9 -12.7 62 62 W 7 11 30.53 1034 10 16 0.00 0.00
11:15 am 11:15 Sunny 21 -6 11 -11.8 63 63 W 7 11 30.52 1033 10 16 0.00 0.00
11:35 am 11:35 Sunny 22 -5.4 12 -11.3 63 63 WSW 6 9 30.51 1033 10 16 0.00 0.00
11:55 am 11:55 Sunny 23 -5.1 11 -11.6 60 60 W 5 7 30.49 1032 10 16 0.00 0.00
12:15 pm 12:15 Sunny 24 -4.3 12 -11.2 58 58 NW 5 7 30.48 1032 10 16 0.00 0.00
12:35 pm 12:35 Sunny 25 -3.7 13 -10.6 59 59 WNW 3 6 30.46 1032 10 16 0.00 0.00
12:55 pm 12:55 Sunny 26 -3.4 11 -11.6 53 53 W 3 6 30.45 1031 10 16 0.00 0.00
1:15 pm 13:15 Sunny 27 -3 12 -11 54 54 Calm 30.44 1031 10 16 0.00 0.00
1:35 pm 13:35 Sunny 28 -2.5 12 -11.1 52 52 Calm 30.42 1030 10 16 0.00 0.00
1:55 pm 13:55 Sunny 29 -1.4 13 -10.3 51 51 WSW 3 6 30.41 1030 10 16 0.00 0.00
2:15 pm 14:15 Sunny 29 -1.4 13 -10.6 49 49 Calm 30.40 1029 10 16 0.00 0.00
2:35 pm 14:35 Sunny 30 -1 13 -10.7 48 48 Calm 30.39 1029 10 16 0.00 0.00
2:55 pm 14:55 Sunny 31 -0.6 13 -10.3 48 48 Calm 30.37 1028 10 16 0.00 0.00
3:15 pm 15:15 Sunny 31 -0.5 13 -10.8 46 46 S 5 7 30.36 1028 10 16 0.00 0.00
3:35 pm 15:35 Sunny 32 -0.2 13 -10.7 45 45 S 5 7 30.35 1028 10 16 0.00 0.00
3:55 pm 15:55 Sunny 32 -0.1 12 -11.1 43 43 S 7 11 30.36 1028 10 16 0.00 0.00
4:15 pm 16:15 Sunny 32 -0.2 11 -11.4 42 42 S 6 9 30.35 1028 10 16 0.00 0.00
4:35 pm 16:35 Sunny 31 -0.7 13 -10.8 46 46 S 7 11 30.35 1028 10 16 0.00 0.00
4:55 pm 16:55 Sunny 29 -1.6 12 -11.3 47 47 S 6 9 30.36 1028 10 16 0.00 0.00
5:15 pm 17:15 Clear 26 -3.2 12 -11 55 55 S 9 15 30.38 1029 10 16 0.00 0.00
5:35 pm 17:35 Clear 24 -4.2 12 -11.1 58 58 S 8 13 30.38 1029 10 16 0.00 0.00
5:55 pm 17:55 Clear 24 -4.5 11 -11.5 58 58 SSE 7 11 30.39 1029 10 16 0.00 0.00
6:15 pm 18:15 Clear 22 -5.6 11 -11.8 61 61 SSE 8 13 30.39 1029 10 16 0.00 0.00
6:35 pm 18:35 Clear 22 -5.6 10 -12 61 61 SSE 9 15 30.38 1029 10 16 0.00 0.00
6:55 pm 18:55 Clear 22 -5.5 10 -12 60 60 SSE 12 19 30.38 1029 10 16 0.00 0.00
7:15 pm 19:15 Clear 22 -5.5 10 -12.1 60 60 SSE 10 17 30.37 1028 10 16 0.00 0.00
7:35 pm 19:35 Clear 23 -5 10 -12.1 57 57 SSE 12 19 30.37 1028 10 16 0.00 0.00
7:55 pm 19:55 Clear 23 -5 10 -12.1 57 57 SSE 13 20 30.37 1028 10 16 0.00 0.00
8:15 pm 20:15 Clear 22 -5.6 10 -12 61 61 SSE 9 15 30.37 1029 10 16 0.00 0.00
8:35 pm 20:35 Clear 22 -5.7 11 -11.9 61 61 SSE 13 20 30.36 1028 10 16 0.00 0.00
8:55 pm 20:55 Clear 21 -6 10 -12 62 62 SSE 12 19 30.36 1028 10 16 0.00 0.00
9:15 pm 21:15 Clear 21 -6 11 -11.7 64 64 SSE 13 20 30.36 1028 10 16 0.00 0.00
9:35 pm 21:35 Clear 22 -5.7 11 -11.4 64 64 SSE 15 24 30.34 1027 10 16 0.00 0.00
9:55 pm 21:55 Clear 23 -5.2 13 -10.8 65 65 SSE 16 26 30.33 1027 10 16 0.00 0.00
10:15 pm 22:15 Clear 23 -5.2 13 -10.8 65 65 SSE 14 22 30.32 1027 10 16 0.00 0.00
10:35 pm 22:35 Clear 22 -5.5 13 -10.6 67 67 SSE 15 24 30.31 1026 10 16 0.00 0.00
10:55 pm 22:55 Clear 23 -5.1 14 -10 68 68 SSE 14 22 30.30 1026 10 16 0.00 0.00
11:15 pm 23:15 Clear 24 -4.5 15 -9.5 68 68 S 15 24 30.28 1025 10 16 0.00 0.00
11:35 pm 23:35 Clear 25 -3.9 16 -8.8 69 69 S 21 33 30.26 1025 10 16 0.00 0.00
11:55 pm 23:55 Clear 26 -3.5 17 -8.6 68 68 S 16 26 30.26 1025 10 16 0.00 0.00

Powered by AerisWeather